TimeICT,TemperatureF,Dew PointF,Humidity,Sea Level PressureIn,VisibilityMPH,Wind Direction,Wind SpeedMPH,Gust SpeedMPH,PrecipitationIn,Events,Conditions,WindDirDegrees,DateUTC
12:00 AM,64.4,53.6,68,29.95,5.6,North,2.3,-,N/A,,Unknown,10,2012-12-31 17:00:00
1:00 AM,62,52,60,29.96,6,NNE,3.5,,,,Mist,20,2012-12-31 18:00:00
1:00 AM,62.6,51.8,68,29.95,5.6,NNE,3.5,-,N/A,,Unknown,20,2012-12-31 18:00:00
4:00 AM,59.0,55.4,88,29.95,5.0,North,5.8,-,N/A,,Unknown,350,2012-12-31 21:00:00
6:00 AM,59.0,53.6,82,29.95,5.0,North,2.3,-,N/A,,Unknown,10,2012-12-31 23:00:00
6:30 AM,59.0,53.6,82,29.98,5.0,NE,2.3,-,N/A,,Unknown,50,2012-12-31 23:30:00
7:00 AM,59,55,82,30.00,5,North,2.3,,,,Mist,350,2013-01-01 00:00:00
7:00 AM,59.0,55.4,88,29.98,5.0,North,2.3,-,N/A,,Unknown,350,2013-01-01 00:00:00
8:00 AM,62.6,55.4,77,30.01,5.6,NNE,5.8,-,N/A,,Unknown,30,2013-01-01 01:00:00
9:00 AM,66.2,55.4,68,30.01,5.6,North,3.5,-,N/A,,Unknown,10,2013-01-01 02:00:00
10:00 AM,71.6,55.4,57,30.01,-9999.0,NNE,4.6,-,N/A,,Clear,20,2013-01-01 03:00:00
11:00 AM,75.2,57.2,53,29.98,-9999.0,NNE,5.8,-,N/A,,Clear,30,2013-01-01 04:00:00
12:00 PM,78.8,59.0,51,29.95,-9999.0,ENE,3.5,-,N/A,,Clear,60,2013-01-01 05:00:00
1:00 PM,81,60,38,29.90,6,NNW,4.6,,,,Clear,340,2013-01-01 06:00:00
1:00 PM,80.6,60.8,51,29.89,-9999.0,NNW,4.6,-,N/A,,Clear,340,2013-01-01 06:00:00
2:00 PM,82.4,59.0,45,29.86,-9999.0,ENE,5.8,-,N/A,,Clear,60,2013-01-01 07:00:00
3:00 PM,82.4,59.0,45,29.86,-9999.0,NNE,2.3,-,N/A,,Clear,20,2013-01-01 08:00:00
4:00 PM,84.2,59.0,42,29.86,-9999.0,NNE,3.5,-,N/A,,Clear,20,2013-01-01 09:00:00
5:00 PM,84.2,60.8,45,29.86,-9999.0,North,2.3,-,N/A,,Clear,10,2013-01-01 10:00:00
5:30 PM,82.4,60.8,48,29.86,5.6,North,2.3,-,N/A,,Unknown,10,2013-01-01 10:30:00
6:00 PM,80.6,60.8,51,29.86,5.6,NW,1.2,-,N/A,,Unknown,310,2013-01-01 11:00:00
7:00 PM,78,61,46,29.89,5,Calm,Calm,,,,Haze,,2013-01-01 12:00:00
7:00 PM,78.8,60.8,54,29.89,5.0,Calm,Calm,-,N/A,,Unknown,0,2013-01-01 12:00:00
8:00 PM,75.2,60.8,61,29.92,5.0,North,2.3,-,N/A,,Unknown,360,2013-01-01 13:00:00
9:00 PM,73.4,60.8,65,29.92,5.0,North,3.5,-,N/A,,Unknown,350,2013-01-01 14:00:00
10:00 PM,71.6,60.8,69,29.92,5.0,NE,2.3,-,N/A,,Unknown,40,2013-01-01 15:00:00
11:00 PM,69.8,59.0,68,29.92,5.0,ENE,3.5,-,N/A,,Unknown,60,2013-01-01 16:00:00